TimeCST,TemperatureF,Dew PointF,Humidity,Sea Level PressureIn,VisibilityMPH,Wind Direction,Wind SpeedMPH,Gust SpeedMPH,PrecipitationIn,Events,Conditions,WindDirDegrees,DateUTC
12:14 AM,17.6,12.2,79,29.96,10.0,WNW,10.4,16.1,N/A,,Scattered Clouds,290,2012-11-12 06:14:00
12:34 AM,17.6,14.0,86,29.96,10.0,WNW,8.1,-,N/A,,Overcast,290,2012-11-12 06:34:00
12:54 AM,17.6,14.0,86,29.96,10.0,WNW,9.2,-,N/A,,Overcast,290,2012-11-12 06:54:00
1:14 AM,19.4,15.8,86,29.95,10.0,WNW,10.4,16.1,N/A,,Overcast,290,2012-11-12 07:14:00
1:34 AM,19.4,15.8,86,29.95,10.0,WNW,9.2,-,N/A,,Overcast,290,2012-11-12 07:34:00
1:54 AM,19.4,15.8,86,29.95,10.0,WNW,9.2,-,N/A,,Overcast,290,2012-11-12 07:54:00
2:14 AM,19.4,15.8,86,29.94,10.0,WNW,12.7,17.3,N/A,,Overcast,300,2012-11-12 08:14:00
2:34 AM,19.4,15.8,86,29.94,10.0,WNW,13.8,23.0,N/A,,Overcast,300,2012-11-12 08:34:00
2:54 AM,19.4,17.6,93,29.95,5.0,WNW,11.5,23.0,N/A,Snow,Light Snow,300,2012-11-12 08:54:00
3:14 AM,19.4,17.6,93,29.95,4.0,WNW,12.7,21.9,N/A,Snow,Light Snow,300,2012-11-12 09:14:00
3:34 AM,19.4,17.6,93,29.95,5.0,WNW,15.0,19.6,N/A,Snow,Light Snow,300,2012-11-12 09:34:00
3:54 AM,19.4,17.6,93,29.95,7.0,NW,13.8,-,N/A,Snow,Light Snow,310,2012-11-12 09:54:00
4:14 AM,19.4,17.6,93,29.95,5.0,NW,11.5,20.7,N/A,Snow,Light Snow,310,2012-11-12 10:14:00
4:34 AM,19.4,17.6,93,29.96,4.0,NW,12.7,20.7,N/A,Snow,Light Snow,310,2012-11-12 10:34:00
4:54 AM,19.4,17.6,93,29.96,4.0,NW,16.1,20.7,N/A,Snow,Light Snow,320,2012-11-12 10:54:00
5:14 AM,19.4,17.6,93,29.97,4.0,NW,10.4,19.6,N/A,Snow,Light Snow,310,2012-11-12 11:14:00
5:34 AM,19.4,17.6,93,29.97,4.0,WNW,10.4,17.3,N/A,Snow,Light Snow,300,2012-11-12 11:34:00
5:54 AM,19.4,17.6,93,29.97,3.0,NW,13.8,20.7,N/A,Snow,Light Snow,310,2012-11-12 11:54:00
6:14 AM,19.4,17.6,93,29.98,2.0,NW,10.4,17.3,N/A,Snow,Light Snow,320,2012-11-12 12:14:00
6:54 AM,19.4,17.6,93,29.99,3.0,NW,10.4,17.3,N/A,Snow,Light Snow,310,2012-11-12 12:54:00
7:14 AM,19.4,15.8,86,30.00,10.0,NW,10.4,17.3,N/A,,Overcast,320,2012-11-12 13:14:00
7:34 AM,19.4,15.8,86,30.01,7.0,NNW,16.1,20.7,N/A,Snow,Light Snow,330,2012-11-12 13:34:00
7:54 AM,19.4,14.0,80,30.02,10.0,NNW,13.8,20.7,N/A,Snow,Light Snow,330,2012-11-12 13:54:00
8:14 AM,19.4,14.0,80,30.03,10.0,North,11.5,19.6,N/A,,Overcast,350,2012-11-12 14:14:00
8:34 AM,17.6,12.2,79,30.04,10.0,North,13.8,19.6,N/A,,Overcast,350,2012-11-12 14:34:00
8:54 AM,19.4,14.0,80,30.05,7.0,NNW,11.5,17.3,N/A,Snow,Light Snow,340,2012-11-12 14:54:00
9:14 AM,19.4,14.0,80,30.05,7.0,NNW,11.5,17.3,N/A,Snow,Light Snow,330,2012-11-12 15:14:00
9:54 AM,17.6,14.0,86,30.07,4.0,NNW,16.1,21.9,N/A,Snow,Light Snow,330,2012-11-12 15:54:00
10:14 AM,19.4,12.2,74,30.08,10.0,NNW,17.3,21.9,N/A,,Overcast,340,2012-11-12 16:14:00
10:34 AM,19.4,12.2,74,30.09,10.0,NW,12.7,17.3,N/A,,Overcast,310,2012-11-12 16:34:00
10:54 AM,19.4,12.2,74,30.10,10.0,NW,15.0,21.9,N/A,,Overcast,320,2012-11-12 16:54:00
11:14 AM,21.2,14.0,74,30.10,10.0,NW,15.0,23.0,N/A,,Overcast,320,2012-11-12 17:14:00
11:34 AM,21.2,14.0,74,30.10,10.0,NW,12.7,20.7,N/A,,Overcast,320,2012-11-12 17:34:00
11:54 AM,21.2,14.0,74,30.11,10.0,NNW,15.0,18.4,N/A,,Mostly Cloudy,330,2012-11-12 17:54:00
12:14 PM,23.0,15.8,74,30.11,10.0,NNW,15.0,19.6,N/A,,Mostly Cloudy,330,2012-11-12 18:14:00
12:34 PM,23.0,15.8,74,30.11,10.0,NNW,11.5,24.2,N/A,,Mostly Cloudy,330,2012-11-12 18:34:00
12:54 PM,23.0,15.8,74,30.12,10.0,NNW,15.0,21.9,N/A,,Scattered Clouds,330,2012-11-12 18:54:00
1:14 PM,24.8,15.8,69,30.12,10.0,NNW,12.7,20.7,N/A,,Scattered Clouds,340,2012-11-12 19:14:00
1:34 PM,24.8,15.8,69,30.13,10.0,NW,15.0,23.0,N/A,,Scattered Clouds,320,2012-11-12 19:34:00
1:54 PM,24.8,15.8,69,30.13,10.0,NNW,11.5,17.3,N/A,,Scattered Clouds,330,2012-11-12 19:54:00
2:14 PM,24.8,15.8,69,30.14,10.0,NNW,17.3,20.7,N/A,,Scattered Clouds,330,2012-11-12 20:14:00
2:34 PM,24.8,17.6,74,30.14,10.0,NNW,10.4,-,N/A,,Scattered Clouds,330,2012-11-12 20:34:00
2:54 PM,26.6,17.6,69,30.15,10.0,NNW,11.5,17.3,N/A,,Mostly Cloudy,330,2012-11-12 20:54:00
3:14 PM,26.6,17.6,69,30.16,10.0,NNW,12.7,18.4,N/A,,Mostly Cloudy,330,2012-11-12 21:14:00
3:34 PM,26.6,17.6,69,30.16,10.0,NW,10.4,-,N/A,,Scattered Clouds,320,2012-11-12 21:34:00
4:34 PM,26.6,17.6,69,30.18,10.0,NW,11.5,16.1,N/A,,Clear,320,2012-11-12 22:34:00
4:54 PM,26.6,17.6,69,30.19,10.0,NW,8.1,-,N/A,,Clear,320,2012-11-12 22:54:00
5:13 PM,24.8,17.6,74,30.20,10.0,NW,9.2,-,N/A,,Clear,320,2012-11-12 23:13:00
5:34 PM,24.8,17.6,74,30.21,10.0,NW,9.2,-,N/A,,Clear,310,2012-11-12 23:34:00
5:54 PM,24.8,17.6,74,30.22,10.0,WNW,6.9,-,N/A,,Clear,300,2012-11-12 23:54:00
6:13 PM,24.8,15.8,69,30.23,10.0,NW,10.4,-,N/A,,Clear,310,2012-11-13 00:13:00
6:54 PM,23.0,15.8,74,30.24,10.0,WNW,6.9,-,N/A,,Clear,300,2012-11-13 00:54:00
7:14 PM,21.2,15.8,80,30.25,10.0,NW,9.2,-,N/A,,Clear,310,2012-11-13 01:14:00
7:34 PM,21.2,15.8,80,30.25,10.0,WNW,5.8,-,N/A,,Clear,300,2012-11-13 01:34:00
7:54 PM,21.2,15.8,80,30.25,10.0,WNW,4.6,-,N/A,,Clear,290,2012-11-13 01:54:00
8:33 PM,19.4,15.8,86,30.25,10.0,Calm,Calm,-,N/A,,Clear,0,2012-11-13 02:33:00
8:54 PM,19.4,14.0,80,30.26,10.0,West,3.5,-,N/A,,Clear,280,2012-11-13 02:54:00
9:14 PM,19.4,15.8,86,30.27,10.0,West,4.6,-,N/A,,Clear,280,2012-11-13 03:14:00
9:34 PM,19.4,15.8,86,30.27,10.0,West,5.8,-,N/A,,Clear,280,2012-11-13 03:34:00
9:54 PM,19.4,15.8,86,30.28,10.0,WNW,5.8,-,N/A,,Clear,290,2012-11-13 03:54:00
10:14 PM,19.4,15.8,86,30.28,10.0,West,5.8,-,N/A,,Clear,280,2012-11-13 04:14:00
10:34 PM,19.4,15.8,86,30.28,10.0,West,4.6,-,N/A,,Clear,280,2012-11-13 04:34:00
10:54 PM,19.4,15.8,86,30.28,10.0,WNW,3.5,-,N/A,,Clear,290,2012-11-13 04:54:00
11:14 PM,19.4,15.8,86,30.28,10.0,West,3.5,-,N/A,,Clear,280,2012-11-13 05:14:00
11:34 PM,19.4,15.8,86,30.28,10.0,West,3.5,-,N/A,,Clear,260,2012-11-13 05:34:00
11:54 PM,17.6,15.8,93,30.28,10.0,WSW,4.6,-,N/A,,Clear,240,2012-11-13 05:54:00